This is the latest recevied weather packets stored in our database for station/object IZ4UFQ-10. If no packets are shown the sender has not sent any weather packets the latest 10 day(s).
| Time | Temp. | Humidity | Pressure | Rain* | Wind** | Luminosity | Snow |
|---|---|---|---|---|---|---|---|
| 1777535956 | 15° C | 64% | 1023.3 hPa | 0 mm | - | 686 W/m² | - |
| 1777535656 | 15° C | 64% | 1023.2 hPa | 0 mm | - | 680 W/m² | - |
| 1777535356 | 15° C | 66% | 1023.1 hPa | 0 mm | - | 677 W/m² | - |
| 1777535055 | 15° C | 67% | 1023.2 hPa | 0 mm | - | 657 W/m² | - |
| 1777534755 | 15° C | 65% | 1023 hPa | 0 mm | - | 650 W/m² | - |
| 1777534455 | 15° C | 67% | 1023 hPa | 0 mm | - | 599 W/m² | - |
| 1777534155 | 15° C | 68% | 1022.9 hPa | 0 mm | - | 540 W/m² | - |
| 1777533854 | 15° C | 68% | 1023 hPa | 0 mm | - | 522 W/m² | - |
| 1777533554 | 15° C | 69% | 1023 hPa | 0 mm | - | 508 W/m² | - |
| 1777533254 | 14.44° C | 71% | 1022.9 hPa | 0 mm | - | 538 W/m² | - |
| 1777532953 | 14.44° C | 73% | 1022.9 hPa | 0 mm | - | 550 W/m² | - |
| 1777532653 | 14.44° C | 75% | 1022.9 hPa | 0 mm | - | 468 W/m² | - |
| 1777532353 | 14.44° C | 76% | 1022.9 hPa | 0 mm | - | 165 W/m² | - |
| 1777532053 | 14.44° C | 78% | 1022.9 hPa | 0 mm | - | 508 W/m² | - |
| 1777531752 | 13.89° C | 79% | 1022.8 hPa | 0 mm | - | 529 W/m² | - |
| 1777531452 | 13.89° C | 80% | 1022.9 hPa | 0 mm | - | 483 W/m² | - |
| 1777531152 | 14.44° C | 82% | 1022.8 hPa | 0 mm | - | 193 W/m² | - |
| 1777530851 | 13.89° C | 82% | 1022.7 hPa | 0 mm | - | 367 W/m² | - |
| 1777530551 | 13.89° C | 83% | 1022.8 hPa | 0 mm | - | 376 W/m² | - |
| 1777530251 | 13.89° C | 83% | 1022.8 hPa | 0 mm | - | 350 W/m² | - |
| 1777529951 | 13.89° C | 83% | 1022.7 hPa | 0 mm | - | 272 W/m² | - |
| 1777529650 | 13.89° C | 83% | 1022.7 hPa | 0 mm | - | 320 W/m² | - |
| 1777529350 | 13.89° C | 83% | 1022.6 hPa | 0 mm | - | 316 W/m² | - |
| 1777529050 | 13.89° C | 83% | 1022.5 hPa | 0 mm | - | 292 W/m² | - |
| 1777528749 | 13.89° C | 82% | 1022.5 hPa | 0 mm | - | 276 W/m² | - |
* Rain latest hour (hover to see other rain measurements)
** Current wind speed in m/s (hover to see current wind gust speed)